{"data":{"norad_id":52623,"epoch":"2026-05-25T02:31:22.540800Z","epoch_age_seconds":65884,"freshness":"FRESH","line1":"1 52623U 22052AB  26145.10512200  .00000813  00000+0  69105-4 0  9994","line2":"2 52623  53.2160 286.0750 0000300  85.6143 274.4884 15.08841013222526","mean_motion":15.08841013,"eccentricity":3.0e-5,"inclination_deg":53.216,"raan_deg":286.075,"arg_perigee_deg":85.6143,"mean_anomaly_deg":274.4884,"bstar":6.9105e-5,"rev_number":22252,"period_min":95.437490603259,"perigee_km":539.53275631131,"apogee_km":539.94782894887,"semimajor_km":6917.8772926301,"source":"CELESTRAK","updated_at":"2026-05-25T13:38:17.202239Z"}}